Погода в Петелино

Россия / Тульская область     54°07′38″N   37°42′14″E
В апреле 2022 года жителям России запретили посещать сайт meteo.paraplan.net по решению Генеральной прокуратуры. Аудитория сайта уменьшилась в 10 раз. Владельцы сайта не видят смысла в поддержке погодного сервера в таких условиях. Сайт будет закрыт в октябре.
темп.,
°C
ветер,
м/с
пор.,
м/с
влажн.,
%
обл.,
%
осадки,
мм/ч
давл.,
гПа
погр.,
м
4 октября, вт
вт400:00+10ю8168273 0.1 10041111
03:00+9ююв8158292 0.1 10051112
06:00+8ююв8168481 0.0 1006898
09:00+10ю81776100 0.0 10061251
12:00+7юз51086100 0.3 1009607
15:00+8ю61378100 0.4 10101155
18:00+8ю51278100 0.1 1010978
21:00+7ююз61281100 0.2 10111145
5 октября, ср
ср500:00+7ююз5108299 0.3 1011965
03:00+7ююз4988100 0.6 10111195
06:00+7юз6989100 1.7 10111149
09:00+7юз4888100 2.4 10121157
12:00+6з5885100 0.5 1014809
15:00+7з477888 0.6 1016979
18:00+7з5886100 0.3 1017925
21:00+6з4889100 0.4 1017933
6 октября, чт
чт600:00+7з4988100 0.3 1018715
03:00+6з379490 0.4 1018402
06:00+5з379699 0.0 1019274
09:00+7з2594100 0.2 1019269
12:00+8зюз2493100 0.0 1019309
15:00+10зюз3690100 0.0 1019493
18:00+9ююз239644 0.0 101966
21:00+9юз410969 0.0 1019265
7 октября, пт
пт700:00+8юз4119519 0.0 1019277
03:00+8зюз4119591 0.0 1018265
06:00+8з5129742 0.0 1019341
09:00+11зсз5108455 0.0 1021618
12:00+13зсз68661 0.0 1023888
15:00+12зсз686811 0.0 1024885
18:00+10з36814 0.0 1025229
21:00+8з38890 0.0 1026233
8 октября, сб
сб800:00+7з35900 0.0 1027123
03:00+6зюз24910 0.0 102773
06:00+6юз24923 0.0 102773
09:00+8юз35825 0.0 1027207
12:00+13юз45685 0.0 1025639
15:00+14ююз56605 0.0 1023883
18:00+11ююз37745 0.0 1022194
21:00+9ююз4118290 0.0 1022265